Flag for U.S.A. Weather past 2 weeks in Wilmington, Delaware, U.S.A.

Now
64 °F

Fog.


Feels Like: 64 °F
Forecast: 67 / 81 °F
Wind: 5 mph from Northwest

Location: New Castle County Airport

Current Time: Jul 2, 2015 at 6:34:36 AM

Latest Report: Jul 2, 2015 at 5:51 AM


Visibility: 6 mi

Pressure: 29.89 "Hg

Humidity: 90%

Dew point: 61 °F

Location of WilmingtonLocation

Historic Weather in Wilmington — Graph

°F

Wilmington temperature yesterday

Maximum temperature yesterday: 84 °F (at 4:51 PM)
Minimum temperature yesterday: 67 °F (at 2:51 AM)
Average temperature yesterday: 76 °F

Past Weeks' High & Low Weather Summary

 TemperatureHumidityPressure
High92 °F (Jun 23, 1:51 PM)97% (Jun 18, 1:51 AM)30.13 "Hg (Jun 18, 1:51 AM)
Low60 °F (Jun 29, 4:51 AM)44% (Jun 24, 5:51 PM)29.63 "Hg (Jun 28, 3:51 AM)
Average74 °F75%29.94 "Hg
* Reported Jun 17 6:51 AM — Jul 2 4:51 AM, Wilmington, Weather by CustomWeather, © 2015

Note: Actual official high and low records may vary slightly from our data, if they occured in-between our weather recording intervals... More about our weather records

Advertising

Wilmington weather history for previous 24 hours

 ConditionsComfort  
Time TempWeatherWind HumidityBarometerVisibility
4:51 AM
Thu, Jul 2
66 °FClear.No wind87%29.88 "Hg8 mi
3:51 AM65 °FClear.3 mph91%29.88 "Hg8 mi
2:51 AM67 °FClear.5 mph90%29.89 "Hg7 mi
1:51 AM70 °FClear.No wind76%29.90 "Hg9 mi
12:51 AM70 °FClear.3 mph76%29.90 "Hg9 mi
11:51 PM
Wed, Jul 1
74 °FPassing clouds.No wind69%29.90 "Hg9 mi
10:51 PM74 °FPassing clouds.No wind69%29.90 "Hg9 mi
9:51 PM74 °FClear.5 mph69%29.89 "Hg10 mi
8:51 PM78 °FSunny.3 mph58%29.86 "Hg10 mi
7:51 PM79 °FSunny.8 mph56%29.84 "Hg10 mi
6:51 PM81 °FPassing clouds.9 mph56%29.83 "Hg10 mi
5:51 PM83 °FSunny.15 mph50%29.82 "Hg10 mi
4:51 PM84 °FSunny.18 mph46%29.82 "Hg10 mi
3:51 PM83 °FPassing clouds.20 mph50%29.82 "Hg10 mi
2:51 PM82 °FPassing clouds.10 mph60%29.82 "Hg10 mi
1:51 PM81 °FPassing clouds.12 mph62%29.83 "Hg10 mi
12:51 PM80 °FPassing clouds.13 mph64%29.84 "Hg10 mi
11:51 AM78 °FSunny.5 mph64%29.84 "Hg10 mi
10:51 AM78 °FSunny.10 mph62%29.84 "Hg10 mi
9:51 AM75 °FSunny.13 mph71%29.83 "Hg10 mi
8:51 AM72 °FSunny.9 mph84%29.83 "Hg10 mi
7:51 AM70 °FPassing clouds.12 mph90%29.83 "Hg10 mi
6:51 AM68 °FSunny.12 mph93%29.82 "Hg9 mi
Weather by CustomWeather, © 2015

See weather overviewHow to use our weather pages